Location: Aressy
(43.2833°N, 0.3167°W)
Time: 01:57:25
(UTC+00:00)

Cosmos 158 Rocket - Pass Details

Date: 28 January 2021
Orbit: 698 x 794 km, 74.0° (Epoch: 08 March)

Event Time Altitude Azimuth Distance (km) Brightness Sun altitude
Rises 17:30:17 0° 338° (NNW) 3,284 7.3 -4.6°
Reaches altitude 10° 17:32:40 10° 337° (NNW) 2,360 6.6 -5.0°
Maximum altitude 17:38:03 79° 252° (WSW) 812 4.3 -5.9°
Drops below altitude 10° 17:43:26 10° 166° (SSE) 2,353 6.6 -6.8°
Sets 17:45:49 0° 165° (SSE) 3,274 7.3 -7.2°
